Location: Oakhurst
(33.6448°N, 111.9543°W)
Time: 02:40:14
(UTC+00:00)

DUCHIFAT 1 - Pass Details

Date: 30 July 2021
Orbit: 585 x 602 km, 98.0° (Epoch: 24 September)

Event Time Altitude Azimuth Distance (km) Brightness Sun altitude
Rises 08:43:36 0° 23° (NNE) 2,842 ? -35.4°
Reaches altitude 10° 08:45:57 10° 34° (NNE) 1,938 ? -35.2°
Enters shadow 08:47:06 17° 43° (NE) 1,542 ? -35.1°
